PRIVATE WETTERSTATION BILLIGHEIM-ALLFELD                       ZURCK
Wetterdaten: Samstag, 12.03.2022
Datum Zeit Temp. A. Temp. A. min Temp. A. max Feuchte A. Luftdruck Regen Wind Richtung Richtung Sonnenschein ET Solar Taupunkt Windchill Windben Empfang
12.03.2022 00:00 4,6 C 4,6 C 4,8 C 45 % 1018,0 hPa 0,0 l/m 0,0 km/h (0 Bft) N 0 0 min 0,025 mm 0 W/m -6,3 C 4,6 C 0,0 km/h (0 Bft) 98 %
12.03.2022 00:10 4,6 C 4,6 C 4,6 C 45 % 1018,0 hPa 0,0 l/m 0,0 km/h (0 Bft) O 90 0 min 0,000 mm 0 W/m -6,3 C 4,6 C 3,2 km/h (1 Bft) 97 %
12.03.2022 00:20 4,4 C 4,4 C 4,6 C 46 % 1018,1 hPa 0,0 l/m 0,0 km/h (0 Bft) O-SO 112 0 min 0,000 mm 0 W/m -6,2 C 4,4 C 6,4 km/h (2 Bft) 98 %
12.03.2022 00:30 4,4 C 4,4 C 4,4 C 45 % 1018,1 hPa 0,0 l/m 0,0 km/h (0 Bft) O 90 0 min 0,000 mm 0 W/m -6,5 C 4,4 C 8,0 km/h (2 Bft) 97 %
12.03.2022 00:40 4,4 C 4,4 C 4,4 C 46 % 1018,2 hPa 0,0 l/m 0,0 km/h (0 Bft) O 90 0 min 0,000 mm 0 W/m -6,2 C 4,4 C 9,7 km/h (2 Bft) 97 %
12.03.2022 00:50 4,2 C 4,2 C 4,4 C 46 % 1018,3 hPa 0,0 l/m 0,0 km/h (0 Bft) O-NO 67 0 min 0,000 mm 0 W/m -6,4 C 4,2 C 6,4 km/h (2 Bft) 98 %
12.03.2022 01:00 4,0 C 4,0 C 4,2 C 47 % 1018,4 hPa 0,0 l/m 0,0 km/h (0 Bft) N 0 0 min 0,025 mm 0 W/m -6,3 C 4,0 C 0,0 km/h (0 Bft) 97 %
12.03.2022 01:10 3,8 C 3,8 C 3,9 C 47 % 1018,4 hPa 0,0 l/m 0,0 km/h (0 Bft) N 0 0 min 0,000 mm 0 W/m -6,5 C 3,8 C 0,0 km/h (0 Bft) 98 %
12.03.2022 01:20 3,6 C 3,6 C 3,8 C 48 % 1018,4 hPa 0,0 l/m 0,0 km/h (0 Bft) O 90 0 min 0,000 mm 0 W/m -6,4 C 3,6 C 4,8 km/h (1 Bft) 97 %
12.03.2022 01:30 3,5 C 3,4 C 3,6 C 48 % 1018,6 hPa 0,0 l/m 0,0 km/h (0 Bft) N 0 0 min 0,000 mm 0 W/m -6,5 C 3,5 C 0,0 km/h (0 Bft) 98 %
12.03.2022 01:40 3,4 C 3,4 C 3,4 C 48 % 1018,7 hPa 0,0 l/m 0,0 km/h (0 Bft) O 90 0 min 0,000 mm 0 W/m -6,5 C 3,4 C 4,8 km/h (1 Bft) 97 %
12.03.2022 01:50 3,2 C 3,2 C 3,4 C 51 % 1018,6 hPa 0,0 l/m 0,0 km/h (0 Bft) N 0 0 min 0,000 mm 0 W/m -5,9 C 3,2 C 0,0 km/h (0 Bft) 89 %
12.03.2022 02:00 2,9 C 2,9 C 3,2 C 51 % 1018,6 hPa 0,0 l/m 0,0 km/h (0 Bft) NO 45 0 min 0,025 mm 0 W/m -6,2 C 2,9 C 8,0 km/h (2 Bft) 98 %
12.03.2022 02:10 2,8 C 2,8 C 2,9 C 52 % 1018,6 hPa 0,0 l/m 0,0 km/h (0 Bft) N 0 0 min 0,000 mm 0 W/m -6,1 C 2,8 C 0,0 km/h (0 Bft) 97 %
12.03.2022 02:20 2,7 C 2,7 C 2,8 C 52 % 1018,6 hPa 0,0 l/m 0,0 km/h (0 Bft) N 0 0 min 0,000 mm 0 W/m -6,2 C 2,7 C 0,0 km/h (0 Bft) 98 %
12.03.2022 02:30 2,4 C 2,4 C 2,7 C 53 % 1018,5 hPa 0,0 l/m 0,0 km/h (0 Bft) N 0 0 min 0,000 mm 0 W/m -6,2 C 2,4 C 0,0 km/h (0 Bft) 97 %
12.03.2022 02:40 2,2 C 2,2 C 2,4 C 55 % 1018,5 hPa 0,0 l/m 0,0 km/h (0 Bft) N 0 0 min 0,000 mm 0 W/m -5,9 C 2,2 C 0,0 km/h (0 Bft) 98 %
12.03.2022 02:50 2,1 C 2,1 C 2,2 C 55 % 1018,5 hPa 0,0 l/m 0,0 km/h (0 Bft) N 0 0 min 0,000 mm 0 W/m -6,0 C 2,1 C 0,0 km/h (0 Bft) 97 %
12.03.2022 03:00 2,1 C 2,0 C 2,1 C 54 % 1018,5 hPa 0,0 l/m 0,0 km/h (0 Bft) N 0 0 min 0,025 mm 0 W/m -6,2 C 2,1 C 0,0 km/h (0 Bft) 98 %
12.03.2022 03:10 2,1 C 2,1 C 2,2 C 54 % 1018,5 hPa 0,0 l/m 0,0 km/h (0 Bft) N 0 0 min 0,000 mm 0 W/m -6,2 C 2,1 C 0,0 km/h (0 Bft) 98 %
12.03.2022 03:20 2,0 C 2,0 C 2,1 C 55 % 1018,6 hPa 0,0 l/m 0,0 km/h (0 Bft) N 0 0 min 0,000 mm 0 W/m -6,1 C 2,0 C 0,0 km/h (0 Bft) 98 %
12.03.2022 03:30 1,8 C 1,8 C 2,0 C 56 % 1018,5 hPa 0,0 l/m 0,0 km/h (0 Bft) N 0 0 min 0,000 mm 0 W/m -6,0 C 1,8 C 0,0 km/h (0 Bft) 98 %
12.03.2022 03:40 1,6 C 1,6 C 1,8 C 58 % 1018,5 hPa 0,0 l/m 0,0 km/h (0 Bft) N 0 0 min 0,000 mm 0 W/m -5,8 C 1,6 C 0,0 km/h (0 Bft) 97 %
12.03.2022 03:50 1,4 C 1,4 C 1,6 C 59 % 1018,6 hPa 0,0 l/m 0,0 km/h (0 Bft) N 0 0 min 0,000 mm 0 W/m -5,7 C 1,4 C 0,0 km/h (0 Bft) 98 %
12.03.2022 04:00 1,3 C 1,3 C 1,4 C 59 % 1018,6 hPa 0,0 l/m 0,0 km/h (0 Bft) N 0 0 min 0,025 mm 0 W/m -5,8 C 1,3 C 0,0 km/h (0 Bft) 97 %
12.03.2022 04:10 1,1 C 1,1 C 1,3 C 59 % 1018,8 hPa 0,0 l/m 0,0 km/h (0 Bft) NO 45 0 min 0,000 mm 0 W/m -6,0 C 1,1 C 1,6 km/h (1 Bft) 97 %
12.03.2022 04:20 1,1 C 1,1 C 1,1 C 60 % 1018,9 hPa 0,0 l/m 0,0 km/h (0 Bft) N 0 0 min 0,000 mm 0 W/m -5,8 C 1,1 C 0,0 km/h (0 Bft) 98 %
12.03.2022 04:30 1,0 C 1,0 C 1,1 C 60 % 1018,9 hPa 0,0 l/m 0,0 km/h (0 Bft) N 0 0 min 0,000 mm 0 W/m -5,9 C 1,0 C 0,0 km/h (0 Bft) 98 %
12.03.2022 04:40 1,0 C 1,0 C 1,0 C 61 % 1019,0 hPa 0,0 l/m 0,0 km/h (0 Bft) N 0 0 min 0,000 mm 0 W/m -5,7 C 1,0 C 0,0 km/h (0 Bft) 98 %
12.03.2022 04:50 1,0 C 0,9 C 1,0 C 61 % 1019,2 hPa 0,0 l/m 0,0 km/h (0 Bft) N 0 0 min 0,000 mm 0 W/m -5,7 C 1,0 C 0,0 km/h (0 Bft) 97 %
12.03.2022 05:00 0,9 C 0,9 C 1,0 C 62 % 1019,3 hPa 0,0 l/m 0,0 km/h (0 Bft) N 0 0 min 0,025 mm 0 W/m -5,5 C 0,9 C 0,0 km/h (0 Bft) 86 %
12.03.2022 05:10 0,9 C 0,9 C 1,0 C 61 % 1019,4 hPa 0,0 l/m 0,0 km/h (0 Bft) N 0 0 min 0,000 mm 0 W/m -5,8 C 0,9 C 0,0 km/h (0 Bft) 97 %
12.03.2022 05:20 0,9 C 0,9 C 0,9 C 62 % 1019,4 hPa 0,0 l/m 0,0 km/h (0 Bft) N 0 0 min 0,000 mm 0 W/m -5,5 C 0,9 C 0,0 km/h (0 Bft) 98 %
12.03.2022 05:30 0,9 C 0,8 C 0,9 C 61 % 1019,5 hPa 0,0 l/m 0,0 km/h (0 Bft) N 0 0 min 0,000 mm 0 W/m -5,8 C 0,9 C 0,0 km/h (0 Bft) 98 %
12.03.2022 05:40 0,8 C 0,8 C 0,9 C 62 % 1019,6 hPa 0,0 l/m 0,0 km/h (0 Bft) N 0 0 min 0,000 mm 0 W/m -5,6 C 0,8 C 0,0 km/h (0 Bft) 98 %
12.03.2022 05:50 0,8 C 0,8 C 0,8 C 62 % 1019,7 hPa 0,0 l/m 0,0 km/h (0 Bft) N 0 0 min 0,000 mm 0 W/m -5,6 C 0,8 C 0,0 km/h (0 Bft) 98 %
12.03.2022 06:00 0,6 C 0,6 C 0,8 C 63 % 1019,7 hPa 0,0 l/m 0,0 km/h (0 Bft) N 0 0 min 0,025 mm 0 W/m -5,6 C 0,6 C 0,0 km/h (0 Bft) 97 %
12.03.2022 06:10 0,4 C 0,3 C 0,6 C 62 % 1019,7 hPa 0,0 l/m 0,0 km/h (0 Bft) N 0 0 min 0,000 mm 0 W/m -6,0 C 0,4 C 0,0 km/h (0 Bft) 100 %
12.03.2022 06:20 0,2 C 0,2 C 0,3 C 63 % 1019,8 hPa 0,0 l/m 0,0 km/h (0 Bft) N 0 0 min 0,000 mm 0 W/m -6,0 C 0,2 C 0,0 km/h (0 Bft) 90 %
12.03.2022 06:30 0,0 C 0,0 C 0,2 C 63 % 1019,8 hPa 0,0 l/m 0,0 km/h (0 Bft) N 0 0 min 0,000 mm 0 W/m -6,2 C 0,0 C 0,0 km/h (0 Bft) 100 %
12.03.2022 06:40 -0,1 C -0,1 C 0,0 C 64 % 1020,0 hPa 0,0 l/m 0,0 km/h (0 Bft) N 0 0 min 0,000 mm 0 W/m -6,1 C -0,1 C 0,0 km/h (0 Bft) 100 %
12.03.2022 06:50 -0,3 C -0,3 C -0,1 C 65 % 1020,0 hPa 0,0 l/m 0,0 km/h (0 Bft) N 0 0 min 0,000 mm 7 W/m -6,1 C -0,3 C 0,0 km/h (0 Bft) 100 %
12.03.2022 07:00 -0,3 C -0,4 C -0,3 C 65 % 1020,1 hPa 0,0 l/m 0,0 km/h (0 Bft) N 0 0 min 0,000 mm 12 W/m -6,1 C -0,3 C 0,0 km/h (0 Bft) 100 %
12.03.2022 07:10 -0,3 C -0,4 C -0,3 C 65 % 1020,3 hPa 0,0 l/m 0,0 km/h (0 Bft) N 0 0 min 0,000 mm 19 W/m -6,1 C -0,3 C 0,0 km/h (0 Bft) 100 %
12.03.2022 07:20 -0,3 C -0,3 C -0,3 C 65 % 1020,2 hPa 0,0 l/m 0,0 km/h (0 Bft) N 0 0 min 0,000 mm 28 W/m -6,1 C -0,3 C 0,0 km/h (0 Bft) 100 %
12.03.2022 07:30 -0,3 C -0,3 C -0,3 C 66 % 1020,6 hPa 0,0 l/m 0,0 km/h (0 Bft) NO 45 0 min 0,000 mm 37 W/m -5,9 C -0,3 C 3,2 km/h (1 Bft) 100 %
12.03.2022 07:40 -0,3 C -0,3 C -0,3 C 65 % 1020,7 hPa 0,0 l/m 0,0 km/h (0 Bft) N 0 0 min 0,000 mm 49 W/m -6,1 C -0,3 C 0,0 km/h (0 Bft) 100 %
12.03.2022 07:50 -0,2 C -0,3 C -0,2 C 65 % 1020,6 hPa 0,0 l/m 0,0 km/h (0 Bft) N 0 0 min 0,000 mm 54 W/m -6,0 C -0,2 C 0,0 km/h (0 Bft) 100 %
12.03.2022 08:00 0,1 C -0,2 C 0,1 C 66 % 1020,5 hPa 0,0 l/m 0,0 km/h (0 Bft) N 0 0 min 0,025 mm 67 W/m -5,5 C 0,1 C 0,0 km/h (0 Bft) 100 %
12.03.2022 08:10 0,6 C 0,1 C 0,6 C 64 % 1020,6 hPa 0,0 l/m 0,0 km/h (0 Bft) N 0 10 min 0,000 mm 169 W/m -5,4 C 0,6 C 0,0 km/h (0 Bft) 100 %
12.03.2022 08:20 1,4 C 0,6 C 1,4 C 62 % 1020,6 hPa 0,0 l/m 0,0 km/h (0 Bft) N 0 10 min 0,000 mm 200 W/m -5,1 C 1,4 C 0,0 km/h (0 Bft) 100 %
12.03.2022 08:30 2,1 C 1,4 C 2,1 C 58 % 1020,6 hPa 0,0 l/m 0,0 km/h (0 Bft) NO 45 10 min 0,000 mm 218 W/m -5,3 C 2,1 C 6,4 km/h (2 Bft) 100 %
12.03.2022 08:40 2,6 C 2,1 C 2,6 C 57 % 1020,6 hPa 0,0 l/m 0,0 km/h (0 Bft) NO 45 10 min 0,000 mm 239 W/m -5,0 C 2,6 C 1,6 km/h (1 Bft) 100 %
12.03.2022 08:50 3,1 C 2,6 C 3,1 C 55 % 1020,6 hPa 0,0 l/m 0,0 km/h (0 Bft) NO 45 10 min 0,000 mm 264 W/m -5,0 C 3,1 C 3,2 km/h (1 Bft) 100 %
12.03.2022 09:00 3,1 C 3,0 C 3,1 C 54 % 1020,7 hPa 0,0 l/m 1,6 km/h (1 Bft) NO 45 10 min 0,076 mm 294 W/m -5,3 C 3,1 C 11,3 km/h (2 Bft) 100 %
12.03.2022 09:10 3,2 C 3,0 C 3,2 C 55 % 1020,7 hPa 0,0 l/m 0,0 km/h (0 Bft) NO 45 10 min 0,000 mm 295 W/m -5,0 C 3,2 C 6,4 km/h (2 Bft) 100 %
12.03.2022 09:20 3,6 C 3,0 C 3,6 C 54 % 1020,8 hPa 0,0 l/m 0,0 km/h (0 Bft) NO 46 10 min 0,000 mm 290 W/m -4,8 C 3,6 C 0,0 km/h (0 Bft) 98 %
12.03.2022 09:30 4,0 C 3,6 C 4,0 C 53 % 1020,7 hPa 0,0 l/m 0,1 km/h (0 Bft) NO 44 10 min 0,000 mm 348 W/m -4,7 C 4,0 C 4,8 km/h (1 Bft) 89 %
12.03.2022 09:40 4,2 C 4,0 C 4,2 C 53 % 1020,7 hPa 0,0 l/m 0,0 km/h (0 Bft) NO 44 10 min 0,000 mm 387 W/m -4,5 C 4,2 C 0,0 km/h (0 Bft) 97 %
12.03.2022 09:50 4,6 C 4,2 C 4,6 C 52 % 1020,8 hPa 0,0 l/m 0,2 km/h (0 Bft) NO 52 10 min 0,000 mm 417 W/m -4,4 C 4,6 C 4,8 km/h (1 Bft) 98 %
12.03.2022 10:00 5,0 C 4,6 C 5,0 C 52 % 1020,8 hPa 0,0 l/m 0,0 km/h (0 Bft) NO 50 10 min 0,105 mm 429 W/m -4,0 C 5,0 C 1,6 km/h (1 Bft) 97 %
12.03.2022 10:10 5,3 C 5,0 C 5,3 C 52 % 1020,8 hPa 0,0 l/m 0,0 km/h (0 Bft) O-NO 60 10 min 0,000 mm 438 W/m -3,7 C 5,3 C 4,8 km/h (1 Bft) 98 %
12.03.2022 10:20 5,9 C 5,3 C 5,9 C 51 % 1020,7 hPa 0,0 l/m 0,0 km/h (0 Bft) NO 53 10 min 0,000 mm 446 W/m -3,4 C 5,9 C 0,0 km/h (0 Bft) 97 %
12.03.2022 10:30 6,2 C 5,9 C 6,2 C 50 % 1020,7 hPa 0,0 l/m 0,1 km/h (0 Bft) NO 46 10 min 0,000 mm 482 W/m -3,4 C 6,2 C 3,2 km/h (1 Bft) 98 %
12.03.2022 10:40 6,7 C 6,2 C 6,7 C 50 % 1020,7 hPa 0,0 l/m 0,2 km/h (0 Bft) N-NO 22 10 min 0,000 mm 485 W/m -3,0 C 6,7 C 8,0 km/h (2 Bft) 97 %
12.03.2022 10:50 7,2 C 6,7 C 7,2 C 50 % 1020,8 hPa 0,0 l/m 0,0 km/h (0 Bft) N-NO 26 10 min 0,000 mm 489 W/m -2,5 C 7,2 C 0,0 km/h (0 Bft) 98 %
12.03.2022 11:00 7,6 C 7,2 C 7,6 C 49 % 1020,7 hPa 0,0 l/m 0,0 km/h (0 Bft) N-NO 27 10 min 0,000 mm 499 W/m -2,4 C 7,6 C 0,0 km/h (0 Bft) 97 %
12.03.2022 11:10 7,9 C 7,6 C 7,9 C 48 % 1020,6 hPa 0,0 l/m 0,0 km/h (0 Bft) N-NO 29 10 min 0,203 mm 529 W/m -2,4 C 7,9 C 1,6 km/h (1 Bft) 97 %
12.03.2022 11:20 8,4 C 7,9 C 8,4 C 46 % 1020,4 hPa 0,0 l/m 0,2 km/h (0 Bft) NO 34 10 min 0,000 mm 552 W/m -2,5 C 8,4 C 8,0 km/h (2 Bft) 98 %
12.03.2022 11:30 8,8 C 8,4 C 8,8 C 47 % 1020,4 hPa 0,0 l/m 0,0 km/h (0 Bft) NO 37 10 min 0,000 mm 568 W/m -1,9 C 8,8 C 1,6 km/h (1 Bft) 97 %
12.03.2022 11:40 9,1 C 8,8 C 9,1 C 47 % 1020,4 hPa 0,0 l/m 0,2 km/h (0 Bft) N-NO 26 10 min 0,000 mm 571 W/m -1,6 C 9,1 C 6,4 km/h (2 Bft) 97 %
12.03.2022 11:50 9,4 C 9,1 C 9,4 C 45 % 1020,2 hPa 0,0 l/m 0,1 km/h (0 Bft) N-NO 31 10 min 0,000 mm 571 W/m -1,9 C 9,4 C 6,4 km/h (2 Bft) 97 %
12.03.2022 12:00 9,7 C 9,4 C 9,7 C 46 % 1020,1 hPa 0,0 l/m 0,0 km/h (0 Bft) NO 36 10 min 0,254 mm 573 W/m -1,3 C 9,7 C 1,6 km/h (1 Bft) 97 %
12.03.2022 12:10 10,1 C 9,7 C 10,1 C 46 % 1020,0 hPa 0,0 l/m 0,3 km/h (0 Bft) NO 36 10 min 0,000 mm 568 W/m -1,0 C 10,1 C 8,0 km/h (2 Bft) 98 %
12.03.2022 12:20 10,2 C 10,0 C 10,2 C 46 % 1019,9 hPa 0,0 l/m 0,2 km/h (0 Bft) NO 44 10 min 0,000 mm 524 W/m -0,9 C 10,2 C 6,4 km/h (2 Bft) 97 %
12.03.2022 12:30 10,5 C 10,2 C 10,5 C 45 % 1019,8 hPa 0,0 l/m 1,0 km/h (0 Bft) N-NO 28 10 min 0,000 mm 561 W/m -0,9 C 10,5 C 11,3 km/h (2 Bft) 97 %
12.03.2022 12:40 10,8 C 10,5 C 10,8 C 44 % 1019,9 hPa 0,0 l/m 0,1 km/h (0 Bft) NO 40 10 min 0,000 mm 561 W/m -1,0 C 10,8 C 6,4 km/h (2 Bft) 97 %
12.03.2022 12:50 11,1 C 10,8 C 11,1 C 45 % 1019,8 hPa 0,0 l/m 0,0 km/h (0 Bft) NO 40 10 min 0,000 mm 580 W/m -0,4 C 11,1 C 1,6 km/h (1 Bft) 98 %
12.03.2022 13:00 11,4 C 11,1 C 11,4 C 45 % 1019,5 hPa 0,0 l/m 0,0 km/h (0 Bft) N-NO 33 10 min 0,254 mm 548 W/m -0,1 C 11,4 C 3,2 km/h (1 Bft) 97 %
12.03.2022 13:10 11,7 C 11,4 C 11,7 C 45 % 1019,4 hPa 0,0 l/m 0,6 km/h (0 Bft) NO 56 10 min 0,000 mm 545 W/m 0,2 C 11,7 C 8,0 km/h (2 Bft) 97 %
12.03.2022 13:20 11,8 C 11,7 C 11,9 C 45 % 1019,3 hPa 0,0 l/m 0,3 km/h (0 Bft) O-NO 58 10 min 0,000 mm 543 W/m 0,3 C 11,8 C 9,7 km/h (2 Bft) 98 %
12.03.2022 13:30 11,9 C 11,8 C 11,9 C 45 % 1019,2 hPa 0,0 l/m 0,1 km/h (0 Bft) NO 40 10 min 0,000 mm 543 W/m 0,4 C 11,9 C 4,8 km/h (1 Bft) 97 %
12.03.2022 13:40 12,2 C 11,9 C 12,2 C 46 % 1019,2 hPa 0,0 l/m 0,4 km/h (0 Bft) NO 40 10 min 0,000 mm 489 W/m 0,9 C 12,2 C 8,0 km/h (2 Bft) 98 %
12.03.2022 13:50 12,3 C 12,2 C 12,3 C 46 % 1019,0 hPa 0,0 l/m 0,0 km/h (0 Bft) NO 38 10 min 0,000 mm 464 W/m 1,0 C 12,3 C 3,2 km/h (1 Bft) 97 %
12.03.2022 14:00 12,3 C 12,3 C 12,3 C 46 % 1018,9 hPa 0,0 l/m 0,1 km/h (0 Bft) NO 40 10 min 0,254 mm 436 W/m 1,0 C 12,3 C 3,2 km/h (1 Bft) 97 %
12.03.2022 14:10 12,3 C 12,3 C 12,3 C 47 % 1018,7 hPa 0,0 l/m 0,4 km/h (0 Bft) NO 45 10 min 0,000 mm 483 W/m 1,3 C 12,3 C 6,4 km/h (2 Bft) 98 %
12.03.2022 14:20 12,5 C 12,3 C 12,5 C 46 % 1018,5 hPa 0,0 l/m 0,4 km/h (0 Bft) NO 43 10 min 0,000 mm 529 W/m 1,2 C 12,5 C 6,4 km/h (2 Bft) 97 %
12.03.2022 14:30 12,8 C 12,5 C 12,8 C 46 % 1018,6 hPa 0,0 l/m 0,0 km/h (0 Bft) N-NO 32 10 min 0,000 mm 494 W/m 1,5 C 12,8 C 3,2 km/h (1 Bft) 97 %
12.03.2022 14:40 12,8 C 12,8 C 12,8 C 47 % 1018,5 hPa 0,0 l/m 0,4 km/h (0 Bft) O-NO 78 10 min 0,000 mm 468 W/m 1,8 C 12,8 C 6,4 km/h (2 Bft) 97 %
12.03.2022 14:50 12,9 C 12,8 C 12,9 C 46 % 1018,2 hPa 0,0 l/m 0,4 km/h (0 Bft) NO 34 10 min 0,000 mm 468 W/m 1,6 C 12,9 C 9,7 km/h (2 Bft) 98 %
12.03.2022 15:00 13,1 C 12,9 C 13,1 C 46 % 1018,2 hPa 0,0 l/m 0,3 km/h (0 Bft) O 80 10 min 0,254 mm 424 W/m 1,7 C 13,1 C 8,0 km/h (2 Bft) 97 %
12.03.2022 15:10 12,8 C 12,8 C 13,1 C 47 % 1018,1 hPa 0,0 l/m 0,4 km/h (0 Bft) NO 43 10 min 0,000 mm 408 W/m 1,8 C 12,8 C 6,4 km/h (2 Bft) 98 %
12.03.2022 15:20 12,9 C 12,8 C 12,9 C 47 % 1018,1 hPa 0,0 l/m 0,1 km/h (0 Bft) NO 52 10 min 0,000 mm 390 W/m 1,9 C 12,9 C 8,0 km/h (2 Bft) 97 %
12.03.2022 15:30 12,9 C 12,9 C 13,0 C 47 % 1018,2 hPa 0,0 l/m 0,2 km/h (0 Bft) NO 36 10 min 0,000 mm 315 W/m 1,9 C 12,9 C 6,4 km/h (2 Bft) 97 %
12.03.2022 15:40 12,9 C 12,8 C 12,9 C 46 % 1018,2 hPa 0,0 l/m 0,0 km/h (0 Bft) NO 41 10 min 0,000 mm 343 W/m 1,6 C 12,9 C 1,6 km/h (1 Bft) 98 %
12.03.2022 15:50 12,8 C 12,8 C 12,9 C 47 % 1018,1 hPa 0,0 l/m 0,1 km/h (0 Bft) NO 36 10 min 0,000 mm 276 W/m 1,8 C 12,8 C 4,8 km/h (1 Bft) 97 %
12.03.2022 16:00 12,6 C 12,6 C 12,8 C 47 % 1018,1 hPa 0,0 l/m 0,0 km/h (0 Bft) NO 38 10 min 0,178 mm 251 W/m 1,6 C 12,6 C 0,0 km/h (0 Bft) 98 %
12.03.2022 16:10 12,6 C 12,6 C 12,6 C 48 % 1018,0 hPa 0,0 l/m 0,1 km/h (0 Bft) N-NO 24 10 min 0,000 mm 301 W/m 1,9 C 12,6 C 3,2 km/h (1 Bft) 99 %
12.03.2022 16:20 12,7 C 12,6 C 12,7 C 48 % 1018,1 hPa 0,0 l/m 0,0 km/h (0 Bft) N-NO 32 10 min 0,000 mm 227 W/m 2,0 C 12,7 C 0,0 km/h (0 Bft) 100 %
12.03.2022 16:30 12,6 C 12,6 C 12,7 C 48 % 1018,0 hPa 0,0 l/m 0,0 km/h (0 Bft) N-NO 31 10 min 0,000 mm 267 W/m 1,9 C 12,6 C 1,6 km/h (1 Bft) 100 %
12.03.2022 16:40 12,6 C 12,6 C 12,7 C 46 % 1018,1 hPa 0,0 l/m 0,2 km/h (0 Bft) NO 45 10 min 0,000 mm 216 W/m 1,3 C 12,6 C 6,4 km/h (2 Bft) 100 %
12.03.2022 16:50 12,4 C 12,4 C 12,6 C 46 % 1018,1 hPa 0,0 l/m 0,1 km/h (0 Bft) NO 46 0 min 0,000 mm 134 W/m 1,1 C 12,4 C 4,8 km/h (1 Bft) 99 %
12.03.2022 17:00 12,0 C 12,0 C 12,4 C 48 % 1017,9 hPa 0,0 l/m 0,0 km/h (0 Bft) NO 46 0 min 0,102 mm 72 W/m 1,3 C 12,0 C 0,0 km/h (0 Bft) 100 %
12.03.2022 17:10 11,6 C 11,6 C 12,0 C 49 % 1017,7 hPa 0,0 l/m 0,2 km/h (0 Bft) NO 47 0 min 0,000 mm 56 W/m 1,3 C 11,6 C 4,8 km/h (1 Bft) 100 %
12.03.2022 17:20 11,2 C 11,2 C 11,6 C 49 % 1017,6 hPa 0,0 l/m 0,0 km/h (0 Bft) NO 43 0 min 0,000 mm 49 W/m 0,9 C 11,2 C 1,6 km/h (1 Bft) 100 %
12.03.2022 17:30 10,8 C 10,8 C 11,2 C 49 % 1017,6 hPa 0,0 l/m 0,0 km/h (0 Bft) NO 43 0 min 0,000 mm 46 W/m 0,5 C 10,8 C 0,0 km/h (0 Bft) 100 %
12.03.2022 17:40 10,6 C 10,6 C 10,8 C 50 % 1017,7 hPa 0,0 l/m 0,0 km/h (0 Bft) NO 37 0 min 0,000 mm 35 W/m 0,6 C 10,6 C 1,6 km/h (1 Bft) 100 %
12.03.2022 17:50 10,1 C 10,1 C 10,6 C 51 % 1017,8 hPa 0,0 l/m 0,0 km/h (0 Bft) NO 37 0 min 0,000 mm 28 W/m 0,4 C 10,1 C 0,0 km/h (0 Bft) 100 %
12.03.2022 18:00 9,6 C 9,6 C 10,1 C 52 % 1017,8 hPa 0,0 l/m 0,2 km/h (0 Bft) NO 37 0 min 0,025 mm 19 W/m 0,2 C 9,6 C 4,8 km/h (1 Bft) 100 %
12.03.2022 18:10 9,0 C 9,0 C 9,6 C 51 % 1017,7 hPa 0,0 l/m 0,0 km/h (0 Bft) NO 37 0 min 0,000 mm 9 W/m -0,6 C 9,0 C 0,0 km/h (0 Bft) 100 %
12.03.2022 18:20 8,4 C 8,4 C 9,0 C 52 % 1017,6 hPa 0,0 l/m 1,2 km/h (1 Bft) NO 37 0 min 0,000 mm 0 W/m -0,9 C 8,4 C 4,8 km/h (1 Bft) 100 %
12.03.2022 18:30 7,9 C 7,9 C 8,4 C 52 % 1017,6 hPa 0,0 l/m 3,7 km/h (1 Bft) NO 37 0 min 0,000 mm 0 W/m -1,3 C 7,9 C 6,4 km/h (2 Bft) 100 %
12.03.2022 18:40 7,6 C 7,6 C 7,9 C 52 % 1017,6 hPa 0,0 l/m 0,3 km/h (0 Bft) NO 37 0 min 0,000 mm 0 W/m -1,6 C 7,6 C 4,8 km/h (1 Bft) 100 %
12.03.2022 18:50 7,3 C 7,3 C 7,6 C 52 % 1017,6 hPa 0,0 l/m 0,4 km/h (0 Bft) NO 37 0 min 0,000 mm 0 W/m -1,9 C 7,3 C 4,8 km/h (1 Bft) 100 %
12.03.2022 19:00 6,9 C 6,9 C 7,3 C 51 % 1017,7 hPa 0,0 l/m 0,0 km/h (0 Bft) NO 37 0 min 0,025 mm 0 W/m -2,5 C 6,9 C 0,0 km/h (0 Bft) 100 %
12.03.2022 19:10 6,7 C 6,7 C 6,9 C 51 % 1017,7 hPa 0,0 l/m 0,0 km/h (0 Bft) NO 37 0 min 0,000 mm 0 W/m -2,7 C 6,7 C 0,0 km/h (0 Bft) 100 %
12.03.2022 19:20 6,4 C 6,4 C 6,7 C 50 % 1017,7 hPa 0,0 l/m 0,0 km/h (0 Bft) NO 37 0 min 0,000 mm 0 W/m -3,2 C 6,4 C 0,0 km/h (0 Bft) 100 %
12.03.2022 19:30 6,2 C 6,2 C 6,4 C 50 % 1017,8 hPa 0,0 l/m 0,0 km/h (0 Bft) NO 37 0 min 0,000 mm 0 W/m -3,4 C 6,2 C 0,0 km/h (0 Bft) 100 %
12.03.2022 19:40 5,9 C 5,9 C 6,2 C 51 % 1017,7 hPa 0,0 l/m 0,0 km/h (0 Bft) NO 37 0 min 0,000 mm 0 W/m -3,4 C 5,9 C 0,0 km/h (0 Bft) 91 %
12.03.2022 19:50 5,6 C 5,6 C 5,9 C 52 % 1017,7 hPa 0,0 l/m 0,0 km/h (0 Bft) NO 37 0 min 0,000 mm 0 W/m -3,5 C 5,6 C 0,0 km/h (0 Bft) 100 %
12.03.2022 20:00 5,5 C 5,5 C 5,6 C 51 % 1017,5 hPa 0,0 l/m 0,0 km/h (0 Bft) NO 37 0 min 0,026 mm 0 W/m -3,8 C 5,5 C 0,0 km/h (0 Bft) 99 %
12.03.2022 20:10 5,5 C 5,5 C 5,6 C 51 % 1017,6 hPa 0,0 l/m 0,0 km/h (0 Bft) NO 37 0 min 0,000 mm 0 W/m -3,8 C 5,5 C 0,0 km/h (0 Bft) 99 %
12.03.2022 20:20 5,6 C 5,5 C 5,6 C 51 % 1017,6 hPa 0,0 l/m 0,0 km/h (0 Bft) NO 37 0 min 0,000 mm 0 W/m -3,7 C 5,6 C 0,0 km/h (0 Bft) 100 %
12.03.2022 20:30 5,6 C 5,5 C 5,6 C 50 % 1017,5 hPa 0,0 l/m 0,0 km/h (0 Bft) NO 37 0 min 0,000 mm 0 W/m -4,0 C 5,6 C 0,0 km/h (0 Bft) 100 %
12.03.2022 20:40 5,4 C 5,4 C 5,6 C 51 % 1017,5 hPa 0,0 l/m 0,0 km/h (0 Bft) NO 37 0 min 0,000 mm 0 W/m -3,9 C 5,4 C 0,0 km/h (0 Bft) 99 %
12.03.2022 20:50 5,2 C 5,2 C 5,4 C 51 % 1017,4 hPa 0,0 l/m 0,0 km/h (0 Bft) NO 37 0 min 0,000 mm 0 W/m -4,1 C 5,2 C 0,0 km/h (0 Bft) 98 %
12.03.2022 21:00 5,1 C 5,1 C 5,2 C 50 % 1017,5 hPa 0,0 l/m 0,0 km/h (0 Bft) NO 37 0 min 0,025 mm 0 W/m -4,4 C 5,1 C 0,0 km/h (0 Bft) 98 %
12.03.2022 21:10 5,0 C 5,0 C 5,1 C 51 % 1017,5 hPa 0,0 l/m 0,0 km/h (0 Bft) N 0 0 min 0,000 mm 0 W/m -4,3 C 5,0 C 0,0 km/h (0 Bft) 100 %
12.03.2022 21:20 4,8 C 4,8 C 5,0 C 52 % 1017,4 hPa 0,0 l/m 0,0 km/h (0 Bft) NO 45 0 min 0,000 mm 0 W/m -4,2 C 4,8 C 4,8 km/h (1 Bft) 99 %
12.03.2022 21:30 4,6 C 4,6 C 4,8 C 52 % 1017,3 hPa 0,0 l/m 0,0 km/h (0 Bft) N 0 0 min 0,000 mm 0 W/m -4,4 C 4,6 C 0,0 km/h (0 Bft) 100 %
12.03.2022 21:40 4,4 C 4,4 C 4,6 C 53 % 1017,4 hPa 0,0 l/m 0,0 km/h (0 Bft) N 0 0 min 0,000 mm 0 W/m -4,3 C 4,4 C 0,0 km/h (0 Bft) 100 %
12.03.2022 21:50 4,2 C 4,2 C 4,4 C 53 % 1017,3 hPa 0,0 l/m 0,0 km/h (0 Bft) N 0 0 min 0,000 mm 0 W/m -4,5 C 4,2 C 0,0 km/h (0 Bft) 100 %
12.03.2022 22:00 4,0 C 4,0 C 4,2 C 54 % 1017,3 hPa 0,0 l/m 0,0 km/h (0 Bft) N 0 0 min 0,025 mm 0 W/m -4,4 C 4,0 C 0,0 km/h (0 Bft) 100 %
12.03.2022 22:10 3,9 C 3,9 C 4,0 C 54 % 1017,3 hPa 0,0 l/m 0,0 km/h (0 Bft) N 0 0 min 0,000 mm 0 W/m -4,5 C 3,9 C 0,0 km/h (0 Bft) 100 %
12.03.2022 22:20 3,7 C 3,7 C 4,0 C 56 % 1017,3 hPa 0,0 l/m 0,0 km/h (0 Bft) N 0 0 min 0,000 mm 0 W/m -4,2 C 3,7 C 0,0 km/h (0 Bft) 100 %
12.03.2022 22:30 3,3 C 3,3 C 3,7 C 55 % 1017,2 hPa 0,0 l/m 0,0 km/h (0 Bft) N 0 0 min 0,000 mm 0 W/m -4,9 C 3,3 C 0,0 km/h (0 Bft) 100 %
12.03.2022 22:40 3,4 C 3,3 C 3,4 C 56 % 1017,2 hPa 0,0 l/m 0,0 km/h (0 Bft) N 0 0 min 0,000 mm 0 W/m -4,5 C 3,4 C 0,0 km/h (0 Bft) 100 %
12.03.2022 22:50 3,3 C 3,3 C 3,4 C 56 % 1017,1 hPa 0,0 l/m 0,0 km/h (0 Bft) N 0 0 min 0,000 mm 0 W/m -4,6 C 3,3 C 0,0 km/h (0 Bft) 100 %
12.03.2022 23:00 3,2 C 3,2 C 3,3 C 57 % 1017,1 hPa 0,0 l/m 0,0 km/h (0 Bft) N 0 0 min 0,025 mm 0 W/m -4,5 C 3,2 C 0,0 km/h (0 Bft) 100 %
12.03.2022 23:10 2,7 C 2,7 C 3,2 C 58 % 1017,1 hPa 0,0 l/m 0,0 km/h (0 Bft) N 0 0 min 0,000 mm 0 W/m -4,7 C 2,7 C 0,0 km/h (0 Bft) 100 %
12.03.2022 23:20 2,5 C 2,5 C 2,7 C 58 % 1017,1 hPa 0,0 l/m 0,0 km/h (0 Bft) N 0 0 min 0,000 mm 0 W/m -4,9 C 2,5 C 0,0 km/h (0 Bft) 92 %
12.03.2022 23:30 2,4 C 2,3 C 2,5 C 58 % 1017,0 hPa 0,0 l/m 0,0 km/h (0 Bft) N 0 0 min 0,000 mm 0 W/m -5,0 C 2,4 C 0,0 km/h (0 Bft) 100 %
12.03.2022 23:40 2,3 C 2,3 C 2,4 C 58 % 1016,9 hPa 0,0 l/m 0,0 km/h (0 Bft) N 0 0 min 0,000 mm 0 W/m -5,1 C 2,3 C 0,0 km/h (0 Bft) 100 %
12.03.2022 23:50 2,2 C 2,2 C 2,3 C 61 % 1016,9 hPa 0,0 l/m 0,0 km/h (0 Bft) N 0 0 min 0,000 mm 0 W/m -4,5 C 2,2 C 0,0 km/h (0 Bft) 100 %
_ Min-Zeit 07:00 07:00 07:00 12:40 23:40 - 00:00 - - - - - 01:40 06:50 00:00 05:00
Minimum _ -0,4 C -0,4 C -0,3 C 44 % 1016,9 hPa - 0,0 km/h (0 Bft) - - - - - -6,5 C -0,3 C 0,0 km/h (0 Bft) 86 %
_ Max-Zeit 15:00 15:00 15:00 07:30 09:20 00:00 18:30 - - 08:10 12:00 12:50 16:20 15:00 09:00 06:10
Maximum _ 13,1 C 12,9 C 13,1 C 66 % 1020,8 hPa 0,0 l/m 3,7 km/h
NO (1 Bft)
- - 10 min 0,254 mm 580 W/m 2,0 C 13,1 C 11,3 km/h
NO (2 Bft)
100 %
Durchschnitt _ 5,7 C 5,6 C 5,8 C 53 % 1018,8 hPa #0,0 l/m 0,1 km/h (0 Bft) NO - #8:40 h #2,031 mm 329 W/m -3,3 C 5,7 C 2,3 km/h (1 Bft) 98 %
PRIVATE WETTERSTATION BILLIGHEIM-ALLFELD - www.neckar-odenwald-wetter.de - Holger Sonntag